Flag for U.S.A. Weather past 2 weeks in Moscow, Idaho, U.S.A.

Now
67 °F

Sunny.


Feels Like: 67 °F
Forecast: 46 / 69 °F
Wind: 9 mph from Northwest

Location: Pullman / Moscow Regional Airport

Current Time: May 27, 2015 at 3:15:31 PM

Latest Report: May 27, 2015 at 1:53 PM


Visibility: 10 mi

Pressure: 30.02 "Hg

Humidity: 55%

Dew point: 50 °F

Location of MoscowLocation

Historic Weather in Moscow — Graph

°F

Moscow temperature yesterday

Maximum temperature yesterday: 64 °F (at 2:53 PM)
Minimum temperature yesterday: 45 °F (at 11:53 PM)
Average temperature yesterday: 55 °F

Past Weeks' High & Low Weather Summary

 TemperatureHumidityPressure
High74 °F (May 21, 1:53 PM)97% (May 17, 2:53 AM)30.07 "Hg (May 17, 2:53 AM)
Low35 °F (May 14, 4:53 AM)31% (May 17, 5:53 PM)29.68 "Hg (May 13, 12:53 AM)
Average57 °F70%29.90 "Hg
* Reported May 12 1:01 PM — May 27 12:53 PM, Moscow, Weather by CustomWeather, © 2015

Note: Actual official high and low records may vary slightly from our data, if they occured in-between our weather recording intervals... More about our weather records

Advertising

Moscow weather history for previous 24 hours

 ConditionsComfort  
Time TempWeatherWind HumidityBarometerVisibility
12:53 PM
Wed, May 27
67 °FPassing clouds.6 mph53%30.03 "Hg10 mi
11:53 AM64 °FSunny.6 mph56%30.04 "Hg10 mi
10:53 AM63 °FSunny.8 mph56%30.04 "Hg10 mi
9:53 AM61 °FSunny.6 mph65%30.04 "Hg10 mi
8:53 AM60 °FScattered clouds.6 mph72%30.04 "Hg10 mi
7:53 AM55 °FSunny.No wind83%30.03 "Hg10 mi
6:53 AM47 °FScattered clouds.No wind90%30.03 "Hg10 mi
5:53 AM43 °FPassing clouds.No wind93%30.03 "Hg10 mi
4:53 AM41 °FPassing clouds.No wind89%30.02 "Hg10 mi
3:53 AM42 °FClear.No wind89%30.02 "Hg10 mi
2:53 AM42 °FClear.No wind92%30.01 "Hg10 mi
1:53 AM43 °FClear.No wind89%30.00 "Hg10 mi
12:53 AM44 °FClear.No wind89%30.00 "Hg10 mi
11:53 PM
Tue, May 26
45 °FClear.No wind93%30.00 "Hg10 mi
10:53 PM46 °FClear.3 mph89%29.99 "Hg10 mi
9:53 PM49 °FClear.No wind90%29.99 "Hg10 mi
8:53 PM54 °FSunny.5 mph83%29.97 "Hg10 mi
7:53 PM57 °FSunny.7 mph83%29.96 "Hg10 mi
6:53 PM62 °FSunny.6 mph60%29.94 "Hg10 mi
5:53 PM58 °FScattered clouds.No wind75%29.98 "Hg10 mi
4:53 PM58 °FPartly sunny.12 mph78%29.98 "Hg10 mi
3:53 PM58 °FLight rain. Overcast.12 mph81%29.98 "Hg6 mi
Weather by CustomWeather, © 2015

See weather overviewHow to use our weather pages